Simultaneous Nadir Overpasses (SNOs) Predictions

Prediction of SNOs between METOP-B and NPP Satellite Orbit:

Table of predicted SNOs for the next 14.0 days since TLE Epoch: 5/31/2013
Index Date (METOP-B) Time (METOP-B) Lat,Lon (METOP-B) SZA (METOP-B ) Date (NPP) Time (NPP) Lat,Lon (NPP) SZA (NPP ) Distance(km) Time Diff (sec)
1 06/12/2013 10:22:35 73.27, 17.73 50.14 06/12/2013 10:21:28 73.27, 15.10 50.28 84.36 67
2 06/12/2013 11:13:19 -73.13,-175.25 130.00 06/12/2013 11:12:09 -73.12,-177.25 129.89 64.49 70
3 06/12/2013 12:04:03 72.95, -8.31 49.84 06/12/2013 12:02:52 72.98, -9.63 49.95 43.17 71
4 06/12/2013 12:54:46 -72.86, 158.83 130.25 06/12/2013 12:53:33 -72.82, 158.01 130.22 26.98 73
5 06/12/2013 13:45:30 72.67, -34.22 49.59 06/12/2013 13:44:16 72.68, -34.38 49.62 5.21 74
6 06/12/2013 14:36:12 -72.63, 133.03 130.45 06/12/2013 14:34:59 -72.63, 133.05 130.44 0.77 73
7 06/12/2013 15:26:52 72.65, -59.60 49.57 06/12/2013 15:25:45 72.63, -59.66 49.57 2.57 67
8 06/12/2013 16:17:34 -72.61, 107.64 130.47 06/12/2013 16:16:29 -72.63, 107.66 130.44 2.53 65
9 06/12/2013 17:08:14 72.63, -84.99 49.55 06/12/2013 17:07:15 72.64, -85.04 49.57 2.22 59
10 06/12/2013 17:58:55 -72.64, 82.37 130.45 06/12/2013 17:57:59 -72.64, 82.27 130.44 3.06 56
11 06/12/2013 18:49:36 72.61,-110.37 49.52 06/12/2013 18:48:44 72.60,-110.33 49.52 2.13 52
12 06/12/2013 19:40:17 -72.62, 56.98 130.47 06/12/2013 19:39:28 -72.59, 56.99 130.49 2.98 49
13 06/12/2013 20:30:58 72.59,-135.75 49.50 06/12/2013 20:30:14 72.60,-135.71 49.52 1.86 44
14 06/12/2013 21:21:39 -72.60, 31.60 130.49 06/12/2013 21:20:58 -72.60, 31.61 130.49 0.15 41
15 06/12/2013 22:12:19 72.62,-161.03 49.52 06/12/2013 22:11:44 72.61,-161.10 49.52 2.68 35
16 06/12/2013 23:03:01 -72.58, 6.22 130.52 06/12/2013 23:02:28 -72.61, 6.22 130.48 2.85 33
17 06/12/2013 23:53:41 72.60, 173.59 49.50 06/12/2013 23:53:14 72.61, 173.52 49.53 2.90 27
18 06/13/2013 00:44:23 -72.56, -19.16 130.54 06/13/2013 00:43:57 -72.56, -19.06 130.54 3.31 26
19 06/13/2013 01:35:03 72.58, 148.21 49.48 06/13/2013 01:34:43 72.57, 148.23 49.47 1.44 20
20 06/13/2013 02:25:44 -72.59, -44.44 130.52 06/13/2013 02:25:27 </
